Regional Weather Roundup
Issued by NWS

Home | Current Version | Previous Version | Text Only | Print | Product List | Glossary Off
Versions: 1 2 3 4 5 6 7 8 9 10 11 12 13 14 15 16 17 18 19 20 21 22 23 24 25 26 27 28

000
ASUS45 KBOU 171010
RWRCO

WEATHER ROUNDUP FOR COLORADO
NATIONAL WEATHER SERVICE DENVER/BOULDER CO
300 AM MST SUN DEC 17 2017

NOTE: "FAIR" INDICATES FEW OR NO CLOUDS BELOW 12000 FEET WITH NO
SIGNIFICANT WEATHER AND/OR OBSTRUCTIONS TO VISIBILITY.

COZ001>005-013-030-031-171100-
...NORTHWEST COLORADO...

CITY           SKY/WX    TMP DP  RH WIND       PRES   REMARKS
CRAIG          CLOUDY    11   6  81 CALM      29.97R
HAYDEN         FAIR      15  11  83 SE3       29.97R
MEEKER         FAIR      13   7  77 NE3       29.96R
RABBIT EARS PA FAIR      16   7  67 W9G18     29.89R WCI   4
STEAMBOAT SPGS FAIR      15  11  84 CALM      29.94R
WALDEN         FAIR       3  -4  72 SE8       29.91R WCI -10
$$

COZ006>008-011-171100-
...WEST CENTRAL VALLEYS...

CITY           SKY/WX    TMP DP  RH WIND       PRES   REMARKS
GRAND JUNCTION FAIR      17   4  56 E5        29.97R WCI  10
MONTROSE       FAIR      18   6  59 SE6       29.97R WCI  10
EAGLE          FAIR       9   5  84 SE5       29.99R WCI   1
RIFLE          FAIR      18   7  62 CALM      29.97R
DELTA          FAIR      24   5  43 CALM      29.97R
NUCLA          FAIR      25   0  33 E5        29.98R WCI  19
$$

COZ017>023-064>068-171100-
...SOUTHWEST COLORADO...

CITY           SKY/WX    TMP DP  RH WIND       PRES   REMARKS
DURANGO        FAIR      24   9  52 E7        29.94R WCI  16
CORTEZ         FAIR      22   4  46 CALM      29.95R
PAGOSA SPRINGS CLOUDY    24   6  45 CALM      29.96R
TELLURIDE      FAIR      26  -4  27 E5        29.95R WCI  21
WOLF CREEK PAS FAIR      16   3  57 S14G20    30.00R WCI   1
$$

COZ009-010-012-014-032>034-037-058>063-171100-
...CENTRAL COLORADO...

CITY           SKY/WX    TMP DP  RH WIND       PRES   REMARKS
ASPEN          FAIR      17   5  59 S5        29.90R WCI  10
BUENA VISTA    FAIR      16   8  71 CALM      29.90R
COPPER MTN     NOT AVBL
BERTHOUD PASS  FAIR      14   3  62 W18G26    29.90R WCI  -3
COTTONWOOD PAS FAIR      30   3  31 NW7       29.89R WCI  23
GUNNISON       FAIR      12   7  80 N6        29.96R WCI   3
KREMMLING      FAIR       5   0  78 CALM      29.96R
LEADVILLE      FAIR      10   1  67 N3        29.89R
MONARCH PASS   FAIR      19   1  45 W25       30.02R WCI   2
SALIDA         FAIR      22   9  56 W3        29.98R
SUNLIGHT       FAIR      16  -6  38 SW9       29.96R WCI   4
WILKERSON PASS FAIR      23   0  36 W10G16    29.91S WCI  12
$$

COZ069>075-171100-
...SAN LUIS VALLEY/SANGRE DE CRISTO MOUNTAINS...

CITY           SKY/WX    TMP DP  RH WIND       PRES   REMARKS
ALAMOSA        FAIR      11   6  81 S9        29.91R WCI  -2
DEL NORTE      FAIR      15   6  66 SW7       29.91R WCI   5
LA VETA PASS   MOCLDY    23   5  46 SW26G35     N/A  WCI   6
SAGUACHE       FAIR      21   9  58 NW9       29.91R WCI  11
$$

COZ035-036-038>040-171100-
...NORTHERN COLORADO FRONT RANGE...

CITY           SKY/WX    TMP DP  RH WIND       PRES   REMARKS
DENVER INTL AP FOG       28  26  92 CALM      29.93S VSB 1/2
DMNS CITY PARK NOT AVBL
AURORA         CLOUDY    27  27  99 CALM      29.92F FOG
FRONT RANGE AP FOG       31  30  96 CALM      29.93S VSB 3/4
ERIE MUNI ARPT CLOUDY    31  28  88 CALM      29.99S
BOULDER MUN AP CLOUDY    32  30  93 E3        29.93S
CENTENNIAL     CLOUDY    28  26  92 E3        29.91F
BROOMFIELD     CLOUDY    30  28  93 CALM      29.93S
FORT COLLINS   CLOUDY    30  28  93 E5        29.95R FOG     WCI  25
LONGMONT       CLOUDY    33  30  86 CALM      29.96S
$$

COZ041-046-047-076>085-087-088-171100-
...PIKES PEAK/PALMER DIVIDE AND SOUTHERN FOOTHILLS...

CITY           SKY/WX    TMP DP  RH WIND       PRES   REMARKS
COLO. SPRINGS  FAIR      26  20  77 NE6       29.91R WCI  19
A. F. ACADEMY  FAIR      20  17  87 N8        29.89R WCI  10
SCHRIEVER AFB  FAIR      22  20  93 NE6       29.91R WCI  14
CHEYENNE MTN   FAIR      26  19  74 CALM      29.83R
ELLICOTT       CLOUDY   N/A N/A N/A NE10      29.91R
FALCON         FAIR      22  21  95 N8        29.90R WCI  13
FORT CARSON    FAIR      24  17  74 S7        29.90R WCI  16
LIMON          CLOUDY    28  26  92 N8        29.92S WCI  20
MONUMENT HILL  CLOUDY    23  21  93 NW8       29.91S FOG     WCI  14
CANON CITY     FAIR      30  18  59 E5        29.92R WCI  25
WALSENBURG     FAIR      16  12  86 SW8       29.92R WCI   5
TRINIDAD       CLOUDY    23  18  81 CALM      29.93R
$$

COZ042>045-048>051-090-091-171100-
...NORTHEAST COLORADO...

CITY           SKY/WX    TMP DP  RH WIND       PRES   REMARKS
GREELEY ARPT   CLOUDY    31  30  96 E5        29.97R FOG     WCI  26
AKRON          FRZ RAIN  30  28  92 N9        29.95S FOG     WCI  22
BURLINGTON     CLOUDY    31  29  92 NE13      29.93R WCI  21
WRAY           CLOUDY    34  34 100 N9        29.97S FOG     WCI  26
YUMA           CLOUDY    30  30 100 NE8       29.96S FOG     WCI  23
STERLING       CLOUDY    32  32 100 E7        29.97S FOG     WCI  26
HOLYOKE        CLOUDY    34  32  93 NE10      29.98S FOG     WCI  26
FORT MORGAN    CLOUDY    31  29  95 NE7       29.97R FOG     WCI  24
$$

COZ086-089-092>099-171100-
...SOUTHEAST COLORADO...

CITY           SKY/WX    TMP DP  RH WIND       PRES   REMARKS
PUEBLO         CLOUDY    28  23  81 NE6       29.95R WCI  22
LA JUNTA       CLOUDY    33  27  78 NE9       29.96R WCI  25
LAMAR          CLOUDY    33  26  75 N12       29.93R WCI  24
SPRINGFIELD      N/A     28  25  88 NW20G30   29.91R WCI  15
$$




USA.gov is the U.S. government's official web portal to all federal, state and local government web resources and services.